Tracking 20721 objects as of 2-Jun-2020
HD Live streaming from Space Station
objects crossing your sky now

WESTFORD NEEDLES

Track WESTFORD NEEDLES now!
10-day predictions
WESTFORD NEEDLES is classified as:


NORAD ID: 21660
Int'l Code: 1963-014FG
Perigee: 2,077.5 km
Apogee: 5,037.7 km
Inclination: 86.5 °
Period: 164.1 minutes
Semi major axis: 9928 km
RCS: 0.1099 m2 (medium)
Launch date: May 9, 1963
Source: United States (US)
Launch site: AIR FORCE WESTERN TEST RANGE (AFWTR)
aabbcc
Your satellite tracking list
Your tracking list is empty




NASA's NSSDC Master Catalog

Two Line Element Set (TLE):
1 21660U 63014FG  20150.35323837 +.00000070 +00000-0 +92939-2 0  9992
2 21660 086.5151 194.6621 1490760 314.7376 044.9691 08.77549693871872
Source of the keplerian elements: AFSPC